{"data":{"norad_id":66644,"intl_designator":"2025-271AD","name":"STARLINK-35938","alt_names":[],"object_type":"PAYLOAD","status":"ACTIVE","operator":null,"country":"US","launch_date":"2025-11-23","launch_site_code":"AFWTR","launch_vehicle":null,"mission":null,"orbit_class":"UNKNOWN","rcs_meters":null,"size_class":null,"mass_kg":null,"dimensions":null,"purposes":["comms"],"wikipedia_slug":null,"has_3d_model":false,"image_url":null,"decayed_at":null,"tle_current":{"epoch":"2026-09-19T19:13:15.281184Z","epoch_age_seconds":146974,"freshness":"FRESH","line1":"1 66644U 25271AD  26262.80087131  .00014747  00000+0  44666-3 0  9990","line2":"2 66644  53.1585 317.0526 0001829  91.3447 268.7765 15.34405124 47301","mean_motion":15.34405124,"eccentricity":0.0001829,"inclination_deg":53.1585,"raan_deg":317.0526,"arg_perigee_deg":91.3447,"mean_anomaly_deg":268.7765,"bstar":0.00044666,"rev_number":4730,"period_min":93.847444685671,"perigee_km":461.43682374721,"apogee_km":463.9391975361,"semimajor_km":6840.8250106417,"source":"CELESTRAK","updated_at":"2026-09-21T09:00:36.012925Z"}}}